Tamworth Airport
YSTW : now visible

Airfield :











YOU CAN JOIN US ON...

 
LOGIN :

Register | Disclaimer

   EN    FR    IT 

 









Legend :    VFR   Marginal VFR   IFR   Intensive IFR   Very Intensive IFR
Visi :
Ceiling :
>= 8 km
>= 3000ft
5 to 8 km
1000 to 3000 ft
1500m to 5 km
500 to 1000 ft
800 to 1500m
200 to 500 ft
< 800m
< 200 ft
Symbols :   Thunderstorms  Fog  Heavy snow  Heavy precipitations  Wind > 20 kt






- Airport Elevation : 1334 ft
- IATA code : TMW


YSTW - Tamworth

CURRENT METAR :
  • 220300Z AUTO 13011KT 9999 // NCD 27/13 Q1019

EXPIRED METARs :
  • 220230Z AUTO 15012KT 070V180 9999 // SCT058 26/12 Q1020
  • 220200Z AUTO 14011KT 9999 // SCT055 26/13 Q1020 RF00.0/000.0
  • 220130Z AUTO 11009KT 060V120 9999 // SCT053 25/12 Q1021
  • 220100Z AUTO 14009KT 9999 // NCD 25/12 Q1021 RF00.0/000.0
  • 220030Z AUTO 14011KT 110V190 9999 // SCT048 25/13 Q1022

TAF TAF YSTW
Valid from the 22 at 00:00 until the 22 at 18:00 UTC


212306Z 2200/2218 14012KT CAVOK
FM221200 17008KT CAVOK
YBBB FIR / Oceania



MET'MAP, your aeronautical weather chart ! - Copyright ORBIFLY December 2007 - Disclaimer

ORBIFLY MET'MAP TEAM :

Programming & Development : Alexandra Zaïnal
Concept & original design : Baudouin d'Aumeries
Assistance for programming : Marc-Olivier Méhu
Technical & hardware support : Manuel Goepfert

Contact : metmap@orbifly.com




SOURCES & CREDITS :

   NOAA       Earth
Advisory